This demonstration page uses our WeatherBlox Daily Observations layout. Learn more.

Left ArrowRight Arrow

Hourly Observations for May 16, 2022

Temp ( °F °C ) Dew Point ( °F °C ) Humidity (%) Winds ( mph kmh ) Pressure ( in mb ) Visibility ( mi km ) Precip ( " mm )
12:52 am 00:52 Clear 61 16.1 60 15.6 97 97 N 9 15 29.97 1015 10 16 0.00 0.00
1:52 am 01:52 Clear 59 15 58 14.4 96 96 N 7 11 29.99 1016 10 16 0.00 0.00
2:52 am 02:52 Clear 58 14.4 56 13.3 93 93 N 3 6 29.98 1015 10 16 0.00 0.00
3:52 am 03:52 Clear 55 12.8 54 12.2 96 96 N 3 6 29.98 1015 10 16 0.00 0.00
4:52 am 04:52 Clear 55 12.8 54 12.2 96 96 NW 3 6 29.99 1016 10 16 0.00 0.00
5:38 am 05:38 Mostly Clear with Mist and Fog 53 11.7 52 11.1 96 96 Calm 30.03 1017 1 2 0.00 0.00
5:52 am 05:52 Clear with Mist and Fog 53 11.7 52 11.1 96 96 Calm 30.00 1016 1 2 0.00 0.00
6:01 am 06:01 Clear with Mist and Fog 51 10.6 51 10.6 100 100 Calm 30.03 1017 3 5 0.00 0.00
6:07 am 06:07 Sunny with Mist and Fog 52 11.1 51 10.6 97 97 Calm 30.03 1017 2 2 0.00 0.00
6:17 am 06:17 Sunny with Fog 51 10.6 51 10.6 100 100 Calm 30.04 1017 1 1 0.00 0.00
6:30 am 06:30 Sunny with Mist and Fog 51 10.6 51 10.6 100 100 Calm 30.04 1017 2 3 0.00 0.00
6:32 am 06:32 Sunny with Mist and Fog 51 10.6 51 10.6 100 100 Calm 30.04 1017 4 6 0.00 0.00
6:52 am 06:52 Sunny 52 11.1 51 10.6 97 97 Calm 30.03 1017 10 16 0.00 0.00
7:52 am 07:52 Sunny 58 14.4 55 12.8 90 90 N 3 6 30.04 1017 10 16 0.00 0.00
8:52 am 08:52 Sunny 63 17.2 54 12.2 73 73 NNE 6 9 30.05 1018 10 16 0.00 0.00
9:52 am 09:52 Sunny 67 19.4 50 10 55 55 ENE 8 13 30.06 1018 10 16 0.00 0.00
10:52 am 10:52 Sunny 71 21.7 50 10 47 47 E 3 6 30.05 1018 10 16 0.00 0.00
11:52 am 11:52 Sunny 73 22.8 46 7.8 38 38 NE 6 9 30.06 1018 10 16 0.00 0.00
12:52 pm 12:52 Sunny 75 23.9 49 9.4 40 40 undefined N/A 30.04 1017 10 16 0.00 0.00
1:52 pm 13:52 Sunny 76 24.4 48 8.9 37 37 VRB 3 6 30.02 1017 10 16 0.00 0.00
2:52 pm 14:52 Sunny 77 25 47 8.3 35 35 Calm 30.01 1016 9 14 0.00 0.00
3:52 pm 15:52 Sunny 77 25 47 8.3 35 35 WNW 6 9 29.99 1016 10 16 0.00 0.00
4:52 pm 16:52 Sunny 77 25 47 8.3 35 35 Calm 29.98 1015 10 16 0.00 0.00
5:52 pm 17:52 Sunny 77 25 49 9.4 37 37 WNW 5 7 29.97 1015 10 16 0.00 0.00
6:52 pm 18:52 Sunny 75 23.9 50 10 41 41 NW 6 9 29.97 1015 10 16 0.00 0.00
7:52 pm 19:52 Sunny 73 22.8 50 10 44 44 NW 3 6 29.96 1015 10 16 0.00 0.00
8:52 pm 20:52 Clear 69 20.6 52 11.1 55 55 ENE 3 6 29.96 1015 10 16 0.00 0.00
9:52 pm 21:52 Clear 64 17.8 52 11.1 65 65 Calm 29.98 1015 10 16 0.00 0.00
10:52 pm 22:52 Clear 63 17.2 52 11.1 68 68 Calm 29.97 1015 10 16 0.00 0.00
11:52 pm 23:52 Clear 59 15 51 10.6 75 75 SE 7 11 29.96 1015 10 16 0.00 0.00

Powered by AerisWeather